#datetime,building,power
2023-02-21T00:00:00,mfh,47.37
2023-02-21T00:01:00,mfh,46.66
2023-02-21T00:02:00,mfh,45.75
2023-02-21T00:03:00,mfh,45.69
2023-02-21T00:04:00,mfh,46.89
2023-02-21T00:05:00,mfh,40.74
2023-02-21T00:06:00,mfh,40.71
2023-02-21T00:07:00,mfh,40.92
2023-02-21T00:08:00,mfh,40.56
2023-02-21T00:09:00,mfh,33.78
2023-02-21T00:10:00,mfh,33.87
2023-02-21T00:11:00,mfh,33.68
2023-02-21T00:12:00,mfh,33.43
2023-02-21T00:13:00,mfh,33.53
2023-02-21T00:14:00,mfh,34.06
2023-02-21T00:15:00,mfh,34.15
2023-02-21T00:16:00,mfh,34.18
2023-02-21T00:17:00,mfh,34.24
2023-02-21T00:18:00,mfh,34.22
2023-02-21T00:19:00,mfh,34.28
2023-02-21T00:20:00,mfh,34.37
2023-02-21T00:21:00,mfh,33.77
2023-02-21T00:22:00,mfh,34.90
2023-02-21T00:23:00,mfh,34.03
2023-02-21T00:24:00,mfh,34.86
2023-02-21T00:25:00,mfh,35.40
2023-02-21T00:26:00,mfh,34.70
2023-02-21T00:27:00,mfh,35.02
2023-02-21T00:28:00,mfh,34.44
2023-02-21T00:29:00,mfh,33.66
2023-02-21T00:30:00,mfh,33.11
2023-02-21T00:31:00,mfh,33.10
2023-02-21T00:32:00,mfh,33.29
2023-02-21T00:33:00,mfh,33.87
2023-02-21T00:34:00,mfh,33.95
2023-02-21T00:35:00,mfh,34.54
2023-02-21T00:36:00,mfh,34.15
2023-02-21T00:37:00,mfh,34.12
2023-02-21T00:38:00,mfh,33.51
2023-02-21T00:39:00,mfh,33.46
2023-02-21T00:40:00,mfh,33.37
2023-02-21T00:41:00,mfh,33.29
2023-02-21T00:42:00,mfh,33.98
2023-02-21T00:43:00,mfh,34.05
2023-02-21T00:44:00,mfh,34.19
2023-02-21T00:45:00,mfh,34.21
2023-02-21T00:46:00,mfh,34.14
2023-02-21T00:47:00,mfh,34.27
2023-02-21T00:48:00,mfh,33.27
2023-02-21T00:49:00,mfh,35.23
2023-02-21T00:50:00,mfh,35.31
2023-02-21T00:51:00,mfh,36.00
2023-02-21T00:52:00,mfh,36.70
2023-02-21T00:53:00,mfh,36.40
2023-02-21T00:54:00,mfh,36.47
2023-02-21T00:55:00,mfh,36.48
2023-02-21T00:56:00,mfh,36.45
2023-02-21T00:57:00,mfh,34.90
2023-02-21T00:58:00,mfh,34.87
2023-02-21T00:59:00,mfh,35.41
2023-02-21T01:00:00,mfh,35.60
2023-02-21T01:01:00,mfh,35.56
2023-02-21T01:02:00,mfh,35.49
2023-02-21T01:03:00,mfh,35.48
2023-02-21T01:04:00,mfh,35.47
2023-02-21T01:05:00,mfh,35.51
2023-02-21T01:06:00,mfh,34.82
2023-02-21T01:07:00,mfh,34.67
2023-02-21T01:08:00,mfh,34.65
2023-02-21T01:09:00,mfh,34.80
2023-02-21T01:10:00,mfh,33.56
2023-02-21T01:11:00,mfh,34.46
2023-02-21T01:12:00,mfh,33.57
2023-02-21T01:13:00,mfh,33.52
2023-02-21T01:14:00,mfh,33.64
2023-02-21T01:15:00,mfh,33.05
2023-02-21T01:16:00,mfh,33.14
2023-02-21T01:17:00,mfh,33.29
2023-02-21T01:18:00,mfh,33.91
2023-02-21T01:19:00,mfh,33.81
2023-02-21T01:20:00,mfh,33.84
2023-02-21T01:21:00,mfh,33.93
2023-02-21T01:22:00,mfh,33.93
2023-02-21T01:23:00,mfh,33.88
2023-02-21T01:24:00,mfh,33.82
2023-02-21T01:25:00,mfh,33.17
2023-02-21T01:26:00,mfh,32.99
2023-02-21T01:27:00,mfh,33.03
2023-02-21T01:28:00,mfh,34.38
2023-02-21T01:29:00,mfh,33.65
2023-02-21T01:30:00,mfh,33.57
2023-02-21T01:31:00,mfh,33.65
2023-02-21T01:32:00,mfh,34.64
2023-02-21T01:33:00,mfh,33.61
2023-02-21T01:34:00,mfh,33.21
2023-02-21T01:35:00,mfh,33.15
2023-02-21T01:36:00,mfh,33.37
2023-02-21T01:37:00,mfh,34.04
2023-02-21T01:38:00,mfh,33.97
2023-02-21T01:39:00,mfh,34.07
2023-02-21T01:40:00,mfh,34.07
2023-02-21T01:41:00,mfh,34.36
2023-02-21T01:42:00,mfh,33.86
2023-02-21T01:43:00,mfh,33.21
2023-02-21T01:44:00,mfh,33.21
2023-02-21T01:45:00,mfh,33.10
2023-02-21T01:46:00,mfh,33.84
2023-02-21T01:47:00,mfh,33.88
2023-02-21T01:48:00,mfh,33.81
2023-02-21T01:49:00,mfh,33.80
2023-02-21T01:50:00,mfh,34.52
2023-02-21T01:51:00,mfh,34.08
2023-02-21T01:52:00,mfh,33.40
2023-02-21T01:53:00,mfh,33.18
2023-02-21T01:54:00,mfh,33.27
2023-02-21T01:55:00,mfh,33.84
2023-02-21T01:56:00,mfh,33.33
2023-02-21T01:57:00,mfh,33.28
2023-02-21T01:58:00,mfh,33.39
2023-02-21T01:59:00,mfh,33.00
2023-02-21T02:00:00,mfh,34.91
2023-02-21T02:01:00,mfh,34.91
2023-02-21T02:02:00,mfh,34.35
2023-02-21T02:03:00,mfh,34.45
2023-02-21T02:04:00,mfh,34.85
2023-02-21T02:05:00,mfh,35.50
2023-02-21T02:06:00,mfh,34.98
2023-02-21T02:07:00,mfh,34.90
2023-02-21T02:08:00,mfh,34.81
2023-02-21T02:09:00,mfh,34.97
2023-02-21T02:10:00,mfh,34.26
2023-02-21T02:11:00,mfh,34.09
2023-02-21T02:12:00,mfh,34.59
2023-02-21T02:13:00,mfh,33.97
2023-02-21T02:14:00,mfh,34.55
2023-02-21T02:15:00,mfh,34.74
2023-02-21T02:16:00,mfh,34.82
2023-02-21T02:17:00,mfh,34.70
2023-02-21T02:18:00,mfh,34.84
2023-02-21T02:19:00,mfh,34.93
2023-02-21T02:20:00,mfh,34.15
2023-02-21T02:21:00,mfh,32.61
2023-02-21T02:22:00,mfh,32.09
2023-02-21T02:23:00,mfh,32.93
2023-02-21T02:24:00,mfh,32.98
2023-02-21T02:25:00,mfh,33.50
2023-02-21T02:26:00,mfh,33.17
2023-02-21T02:27:00,mfh,33.29
2023-02-21T02:28:00,mfh,32.64
2023-02-21T02:29:00,mfh,32.56
2023-02-21T02:30:00,mfh,32.63
2023-02-21T02:31:00,mfh,32.34
2023-02-21T02:32:00,mfh,32.95
2023-02-21T02:33:00,mfh,32.97
2023-02-21T02:34:00,mfh,33.04
2023-02-21T02:35:00,mfh,33.55
2023-02-21T02:36:00,mfh,32.96
2023-02-21T02:37:00,mfh,33.04
2023-02-21T02:38:00,mfh,32.33
2023-02-21T02:39:00,mfh,32.18
2023-02-21T02:40:00,mfh,32.30
2023-02-21T02:41:00,mfh,32.87
2023-02-21T02:42:00,mfh,33.00
2023-02-21T02:43:00,mfh,32.95
2023-02-21T02:44:00,mfh,33.07
2023-02-21T02:45:00,mfh,33.15
2023-02-21T02:46:00,mfh,33.08
2023-02-21T02:47:00,mfh,32.46
2023-02-21T02:48:00,mfh,32.53
2023-02-21T02:49:00,mfh,32.32
2023-02-21T02:50:00,mfh,32.97
2023-02-21T02:51:00,mfh,33.16
2023-02-21T02:52:00,mfh,33.12
2023-02-21T02:53:00,mfh,33.14
2023-02-21T02:54:00,mfh,33.09
2023-02-21T02:55:00,mfh,34.14
2023-02-21T02:56:00,mfh,33.31
2023-02-21T02:57:00,mfh,33.38
2023-02-21T02:58:00,mfh,34.07
2023-02-21T02:59:00,mfh,34.27
2023-02-21T03:00:00,mfh,34.07
2023-02-21T03:01:00,mfh,33.33
2023-02-21T03:02:00,mfh,33.34
2023-02-21T03:03:00,mfh,33.38
2023-02-21T03:04:00,mfh,33.47
2023-02-21T03:05:00,mfh,33.22
2023-02-21T03:06:00,mfh,32.57
2023-02-21T03:07:00,mfh,32.58
2023-02-21T03:08:00,mfh,34.64
2023-02-21T03:09:00,mfh,35.20
2023-02-21T03:10:00,mfh,35.08
2023-02-21T03:11:00,mfh,35.14
2023-02-21T03:12:00,mfh,35.02
2023-02-21T03:13:00,mfh,34.97
2023-02-21T03:14:00,mfh,34.20
2023-02-21T03:15:00,mfh,34.29
2023-02-21T03:16:00,mfh,34.28
2023-02-21T03:17:00,mfh,34.79
2023-02-21T03:18:00,mfh,35.04
2023-02-21T03:19:00,mfh,35.02
2023-02-21T03:20:00,mfh,35.00
2023-02-21T03:21:00,mfh,34.89
2023-02-21T03:22:00,mfh,35.30
2023-02-21T03:23:00,mfh,34.96
2023-02-21T03:24:00,mfh,34.31
2023-02-21T03:25:00,mfh,34.31
2023-02-21T03:26:00,mfh,34.22
2023-02-21T03:27:00,mfh,35.71
2023-02-21T03:28:00,mfh,34.86
2023-02-21T03:29:00,mfh,34.72
2023-02-21T03:30:00,mfh,34.50
2023-02-21T03:31:00,mfh,33.42
2023-02-21T03:32:00,mfh,33.11
2023-02-21T03:33:00,mfh,33.06
2023-02-21T03:34:00,mfh,33.06
2023-02-21T03:35:00,mfh,33.13
2023-02-21T03:36:00,mfh,33.34
2023-02-21T03:37:00,mfh,32.58
2023-02-21T03:38:00,mfh,32.54
2023-02-21T03:39:00,mfh,33.17
2023-02-21T03:40:00,mfh,33.25
2023-02-21T03:41:00,mfh,33.33
2023-02-21T03:42:00,mfh,33.21
2023-02-21T03:43:00,mfh,33.45
2023-02-21T03:44:00,mfh,33.54
2023-02-21T03:45:00,mfh,32.97
2023-02-21T03:46:00,mfh,32.37
2023-02-21T03:47:00,mfh,32.37
2023-02-21T03:48:00,mfh,32.66
2023-02-21T03:49:00,mfh,33.29
2023-02-21T03:50:00,mfh,33.45
2023-02-21T03:51:00,mfh,33.30
2023-02-21T03:52:00,mfh,33.21
2023-02-21T03:53:00,mfh,33.32
2023-02-21T03:54:00,mfh,34.75
2023-02-21T03:55:00,mfh,34.59
2023-02-21T03:56:00,mfh,34.28
2023-02-21T03:57:00,mfh,34.07
2023-02-21T03:58:00,mfh,34.68
2023-02-21T03:59:00,mfh,34.70
2023-02-21T04:00:00,mfh,34.83
2023-02-21T04:01:00,mfh,32.91
2023-02-21T04:02:00,mfh,33.16
2023-02-21T04:03:00,mfh,32.84
2023-02-21T04:04:00,mfh,32.88
2023-02-21T04:05:00,mfh,32.44
2023-02-21T04:06:00,mfh,32.52
2023-02-21T04:07:00,mfh,32.74
2023-02-21T04:08:00,mfh,33.28
2023-02-21T04:09:00,mfh,33.52
2023-02-21T04:10:00,mfh,34.47
2023-02-21T04:11:00,mfh,33.45
2023-02-21T04:12:00,mfh,33.41
2023-02-21T04:13:00,mfh,35.24
2023-02-21T04:14:00,mfh,34.16
2023-02-21T04:15:00,mfh,34.23
2023-02-21T04:16:00,mfh,34.23
2023-02-21T04:17:00,mfh,34.83
2023-02-21T04:18:00,mfh,34.92
2023-02-21T04:19:00,mfh,35.01
2023-02-21T04:20:00,mfh,34.97
2023-02-21T04:21:00,mfh,34.85
2023-02-21T04:22:00,mfh,34.77
2023-02-21T04:23:00,mfh,34.13
2023-02-21T04:24:00,mfh,34.09
2023-02-21T04:25:00,mfh,34.77
2023-02-21T04:26:00,mfh,34.78
2023-02-21T04:27:00,mfh,35.58
2023-02-21T04:28:00,mfh,34.66
2023-02-21T04:29:00,mfh,34.91
2023-02-21T04:30:00,mfh,34.96
2023-02-21T04:31:00,mfh,34.88
2023-02-21T04:32:00,mfh,34.33
2023-02-21T04:33:00,mfh,35.29
2023-02-21T04:34:00,mfh,34.15
2023-02-21T04:35:00,mfh,34.81
2023-02-21T04:36:00,mfh,32.92
2023-02-21T04:37:00,mfh,32.91
2023-02-21T04:38:00,mfh,32.88
2023-02-21T04:39:00,mfh,33.33
2023-02-21T04:40:00,mfh,33.39
2023-02-21T04:41:00,mfh,33.48
2023-02-21T04:42:00,mfh,32.63
2023-02-21T04:43:00,mfh,32.85
2023-02-21T04:44:00,mfh,32.84
2023-02-21T04:45:00,mfh,33.48
2023-02-21T04:46:00,mfh,33.24
2023-02-21T04:47:00,mfh,33.19
2023-02-21T04:48:00,mfh,32.92
2023-02-21T04:49:00,mfh,32.95
2023-02-21T04:50:00,mfh,32.34
2023-02-21T04:51:00,mfh,32.46
2023-02-21T04:52:00,mfh,32.39
2023-02-21T04:53:00,mfh,33.16
2023-02-21T04:54:00,mfh,33.22
2023-02-21T04:55:00,mfh,33.19
2023-02-21T04:56:00,mfh,34.08
2023-02-21T04:57:00,mfh,34.24
2023-02-21T04:58:00,mfh,35.08
2023-02-21T04:59:00,mfh,33.54
2023-02-21T05:00:00,mfh,33.73
2023-02-21T05:01:00,mfh,52.39
2023-02-21T05:02:00,mfh,56.11
2023-02-21T05:03:00,mfh,55.75
2023-02-21T05:04:00,mfh,55.74
2023-02-21T05:05:00,mfh,56.00
2023-02-21T05:06:00,mfh,55.58
2023-02-21T05:07:00,mfh,55.70
2023-02-21T05:08:00,mfh,55.22
2023-02-21T05:09:00,mfh,56.16
2023-02-21T05:10:00,mfh,56.27
2023-02-21T05:11:00,mfh,56.38
2023-02-21T05:12:00,mfh,56.36
2023-02-21T05:13:00,mfh,56.47
2023-02-21T05:14:00,mfh,56.39
2023-02-21T05:15:00,mfh,57.49
2023-02-21T05:16:00,mfh,65.87
2023-02-21T05:17:00,mfh,66.56
2023-02-21T05:18:00,mfh,68.05
2023-02-21T05:19:00,mfh,67.86
2023-02-21T05:20:00,mfh,68.48
2023-02-21T05:21:00,mfh,69.43
2023-02-21T05:22:00,mfh,69.10
2023-02-21T05:23:00,mfh,69.83
2023-02-21T05:24:00,mfh,69.85
2023-02-21T05:25:00,mfh,69.52
2023-02-21T05:26:00,mfh,68.82
2023-02-21T05:27:00,mfh,69.42
2023-02-21T05:28:00,mfh,69.77
2023-02-21T05:29:00,mfh,69.36
2023-02-21T05:30:00,mfh,69.75
2023-02-21T05:31:00,mfh,70.45
2023-02-21T05:32:00,mfh,69.59
2023-02-21T05:33:00,mfh,69.63
2023-02-21T05:34:00,mfh,69.14
2023-02-21T05:35:00,mfh,68.80
2023-02-21T05:36:00,mfh,69.02
2023-02-21T05:37:00,mfh,68.81
2023-02-21T05:38:00,mfh,69.38
2023-02-21T05:39:00,mfh,69.20
2023-02-21T05:40:00,mfh,69.04
2023-02-21T05:41:00,mfh,67.81
2023-02-21T05:42:00,mfh,68.40
2023-02-21T05:43:00,mfh,66.81
2023-02-21T05:44:00,mfh,66.68
2023-02-21T05:45:00,mfh,66.79
2023-02-21T05:46:00,mfh,66.70
2023-02-21T05:47:00,mfh,68.55
2023-02-21T05:48:00,mfh,67.22
2023-02-21T05:49:00,mfh,67.33
2023-02-21T05:50:00,mfh,67.17
2023-02-21T05:51:00,mfh,67.00
2023-02-21T05:52:00,mfh,67.16
2023-02-21T05:53:00,mfh,66.37
2023-02-21T05:54:00,mfh,66.41
2023-02-21T05:55:00,mfh,66.49
2023-02-21T05:56:00,mfh,66.97
2023-02-21T05:57:00,mfh,67.12
2023-02-21T05:58:00,mfh,68.48
2023-02-21T05:59:00,mfh,67.20
2023-02-21T06:00:00,mfh,67.38
2023-02-21T06:01:00,mfh,72.62
2023-02-21T06:02:00,mfh,71.71
2023-02-21T06:03:00,mfh,71.46
2023-02-21T06:04:00,mfh,74.96
2023-02-21T06:05:00,mfh,85.13
2023-02-21T06:06:00,mfh,86.72
2023-02-21T06:07:00,mfh,86.28
2023-02-21T06:08:00,mfh,86.12
2023-02-21T06:09:00,mfh,85.86
2023-02-21T06:10:00,mfh,85.98
2023-02-21T06:11:00,mfh,85.71
2023-02-21T06:12:00,mfh,85.72
2023-02-21T06:13:00,mfh,85.85
2023-02-21T06:14:00,mfh,85.45
2023-02-21T06:15:00,mfh,85.25
2023-02-21T06:16:00,mfh,85.43
2023-02-21T06:17:00,mfh,84.80
2023-02-21T06:18:00,mfh,84.74
2023-02-21T06:19:00,mfh,87.95
2023-02-21T06:20:00,mfh,88.22
2023-02-21T06:21:00,mfh,88.01
2023-02-21T06:22:00,mfh,87.99
2023-02-21T06:23:00,mfh,87.99
2023-02-21T06:24:00,mfh,87.80
2023-02-21T06:25:00,mfh,87.78
2023-02-21T06:26:00,mfh,87.80
2023-02-21T06:27:00,mfh,87.55
2023-02-21T06:28:00,mfh,87.50
2023-02-21T06:29:00,mfh,87.48
2023-02-21T06:30:00,mfh,87.52
2023-02-21T06:31:00,mfh,87.82
2023-02-21T06:32:00,mfh,87.81
2023-02-21T06:33:00,mfh,87.81
2023-02-21T06:34:00,mfh,87.70
2023-02-21T06:35:00,mfh,87.73
2023-02-21T06:36:00,mfh,87.60
2023-02-21T06:37:00,mfh,87.59
2023-02-21T06:38:00,mfh,87.38
2023-02-21T06:39:00,mfh,87.37
2023-02-21T06:40:00,mfh,87.32
2023-02-21T06:41:00,mfh,87.30
2023-02-21T06:42:00,mfh,87.28
2023-02-21T06:43:00,mfh,87.03
2023-02-21T06:44:00,mfh,87.09
2023-02-21T06:45:00,mfh,86.97
2023-02-21T06:46:00,mfh,87.18
2023-02-21T06:47:00,mfh,87.32
2023-02-21T06:48:00,mfh,87.27
2023-02-21T06:49:00,mfh,87.16
2023-02-21T06:50:00,mfh,87.11
2023-02-21T06:51:00,mfh,87.02
2023-02-21T06:52:00,mfh,87.03
2023-02-21T06:53:00,mfh,87.04
2023-02-21T06:54:00,mfh,84.15
2023-02-21T06:55:00,mfh,83.85
2023-02-21T06:56:00,mfh,81.24
2023-02-21T06:57:00,mfh,81.12
2023-02-21T06:58:00,mfh,81.43
2023-02-21T06:59:00,mfh,86.05
2023-02-21T07:00:00,mfh,87.27
2023-02-21T07:01:00,mfh,87.29
2023-02-21T07:02:00,mfh,87.26
2023-02-21T07:03:00,mfh,87.13
2023-02-21T07:04:00,mfh,87.04
2023-02-21T07:05:00,mfh,87.00
2023-02-21T07:06:00,mfh,86.85
2023-02-21T07:07:00,mfh,86.80
2023-02-21T07:08:00,mfh,86.76
2023-02-21T07:09:00,mfh,86.64
2023-02-21T07:10:00,mfh,86.82
2023-02-21T07:11:00,mfh,86.50
2023-02-21T07:12:00,mfh,83.74
2023-02-21T07:13:00,mfh,83.81
2023-02-21T07:14:00,mfh,83.96
2023-02-21T07:15:00,mfh,84.15
2023-02-21T07:16:00,mfh,84.23
2023-02-21T07:17:00,mfh,71.80
2023-02-21T07:18:00,mfh,72.03
2023-02-21T07:19:00,mfh,72.09
2023-02-21T07:20:00,mfh,72.45
2023-02-21T07:21:00,mfh,72.28
2023-02-21T07:22:00,mfh,78.83
2023-02-21T07:23:00,mfh,86.20
2023-02-21T07:24:00,mfh,86.36
2023-02-21T07:25:00,mfh,85.96
2023-02-21T07:26:00,mfh,85.59
2023-02-21T07:27:00,mfh,85.58
2023-02-21T07:28:00,mfh,85.61
2023-02-21T07:29:00,mfh,85.58
2023-02-21T07:30:00,mfh,85.68
2023-02-21T07:31:00,mfh,86.21
2023-02-21T07:32:00,mfh,86.19
2023-02-21T07:33:00,mfh,86.09
2023-02-21T07:34:00,mfh,85.68
2023-02-21T07:35:00,mfh,85.82
2023-02-21T07:36:00,mfh,85.61
2023-02-21T07:37:00,mfh,85.59
2023-02-21T07:38:00,mfh,85.80
2023-02-21T07:39:00,mfh,85.80
2023-02-21T07:40:00,mfh,85.50
2023-02-21T07:41:00,mfh,85.42
2023-02-21T07:42:00,mfh,85.17
2023-02-21T07:43:00,mfh,85.35
2023-02-21T07:44:00,mfh,85.30
2023-02-21T07:45:00,mfh,85.57
2023-02-21T07:46:00,mfh,85.64
2023-02-21T07:47:00,mfh,85.40
2023-02-21T07:48:00,mfh,85.57
2023-02-21T07:49:00,mfh,85.35
2023-02-21T07:50:00,mfh,85.48
2023-02-21T07:51:00,mfh,85.57
2023-02-21T07:52:00,mfh,85.50
2023-02-21T07:53:00,mfh,83.96
2023-02-21T07:54:00,mfh,87.45
2023-02-21T07:55:00,mfh,87.53
2023-02-21T07:56:00,mfh,87.66
2023-02-21T07:57:00,mfh,87.52
2023-02-21T07:58:00,mfh,87.70
2023-02-21T07:59:00,mfh,87.42
2023-02-21T08:00:00,mfh,87.44
2023-02-21T08:01:00,mfh,86.92
2023-02-21T08:02:00,mfh,86.83
2023-02-21T08:03:00,mfh,86.70
2023-02-21T08:04:00,mfh,86.88
2023-02-21T08:05:00,mfh,87.04
2023-02-21T08:06:00,mfh,86.92
2023-02-21T08:07:00,mfh,86.72
2023-02-21T08:08:00,mfh,86.72
2023-02-21T08:09:00,mfh,86.68
2023-02-21T08:10:00,mfh,87.01
2023-02-21T08:11:00,mfh,86.98
2023-02-21T08:12:00,mfh,86.94
2023-02-21T08:13:00,mfh,87.17
2023-02-21T08:14:00,mfh,87.12
2023-02-21T08:15:00,mfh,87.30
2023-02-21T08:16:00,mfh,87.49
2023-02-21T08:17:00,mfh,87.62
2023-02-21T08:18:00,mfh,87.74
2023-02-21T08:19:00,mfh,87.63
2023-02-21T08:20:00,mfh,87.70
2023-02-21T08:21:00,mfh,88.03
2023-02-21T08:22:00,mfh,88.05
2023-02-21T08:23:00,mfh,85.70
2023-02-21T08:24:00,mfh,85.94
2023-02-21T08:25:00,mfh,86.01
2023-02-21T08:26:00,mfh,85.76
2023-02-21T08:27:00,mfh,85.21
2023-02-21T08:28:00,mfh,82.34
2023-02-21T08:29:00,mfh,82.29
2023-02-21T08:30:00,mfh,82.88
2023-02-21T08:31:00,mfh,82.81
2023-02-21T08:32:00,mfh,83.20
2023-02-21T08:33:00,mfh,83.25
2023-02-21T08:34:00,mfh,82.70
2023-02-21T08:35:00,mfh,82.13
2023-02-21T08:36:00,mfh,82.01
2023-02-21T08:37:00,mfh,82.86
2023-02-21T08:38:00,mfh,82.82
2023-02-21T08:39:00,mfh,82.47
2023-02-21T08:40:00,mfh,82.68
2023-02-21T08:41:00,mfh,82.44
2023-02-21T08:42:00,mfh,82.75
2023-02-21T08:43:00,mfh,83.43
2023-02-21T08:44:00,mfh,83.71
2023-02-21T08:45:00,mfh,83.64
2023-02-21T08:46:00,mfh,83.24
2023-02-21T08:47:00,mfh,84.77
2023-02-21T08:48:00,mfh,84.37
2023-02-21T08:49:00,mfh,84.11
2023-02-21T08:50:00,mfh,83.35
2023-02-21T08:51:00,mfh,83.69
2023-02-21T08:52:00,mfh,82.86
2023-02-21T08:53:00,mfh,82.66
2023-02-21T08:54:00,mfh,82.72
2023-02-21T08:55:00,mfh,77.75
2023-02-21T08:56:00,mfh,76.92
2023-02-21T08:57:00,mfh,77.33
2023-02-21T08:58:00,mfh,82.54
2023-02-21T08:59:00,mfh,82.84
2023-02-21T09:00:00,mfh,86.54
2023-02-21T09:01:00,mfh,86.40
2023-02-21T09:02:00,mfh,86.14
2023-02-21T09:03:00,mfh,87.89
2023-02-21T09:04:00,mfh,87.95
2023-02-21T09:05:00,mfh,87.72
2023-02-21T09:06:00,mfh,87.79
2023-02-21T09:07:00,mfh,87.72
2023-02-21T09:08:00,mfh,87.54
2023-02-21T09:09:00,mfh,87.40
2023-02-21T09:10:00,mfh,87.60
2023-02-21T09:11:00,mfh,87.59
2023-02-21T09:12:00,mfh,87.37
2023-02-21T09:13:00,mfh,87.43
2023-02-21T09:14:00,mfh,87.24
2023-02-21T09:15:00,mfh,87.33
2023-02-21T09:16:00,mfh,87.14
2023-02-21T09:17:00,mfh,87.12
2023-02-21T09:18:00,mfh,87.00
2023-02-21T09:19:00,mfh,87.06
2023-02-21T09:20:00,mfh,80.95
2023-02-21T09:21:00,mfh,81.09
2023-02-21T09:22:00,mfh,81.27
2023-02-21T09:23:00,mfh,72.71
2023-02-21T09:24:00,mfh,73.49
2023-02-21T09:25:00,mfh,73.11
2023-02-21T09:26:00,mfh,82.58
2023-02-21T09:27:00,mfh,88.27
2023-02-21T09:28:00,mfh,88.27
2023-02-21T09:29:00,mfh,88.15
2023-02-21T09:30:00,mfh,87.91
2023-02-21T09:31:00,mfh,88.03
2023-02-21T09:32:00,mfh,87.76
2023-02-21T09:33:00,mfh,88.01
2023-02-21T09:34:00,mfh,87.77
2023-02-21T09:35:00,mfh,87.74
2023-02-21T09:36:00,mfh,87.77
2023-02-21T09:37:00,mfh,87.84
2023-02-21T09:38:00,mfh,87.74
2023-02-21T09:39:00,mfh,87.62
2023-02-21T09:40:00,mfh,87.65
2023-02-21T09:41:00,mfh,87.55
2023-02-21T09:42:00,mfh,87.44
2023-02-21T09:43:00,mfh,87.09
2023-02-21T09:44:00,mfh,87.21
2023-02-21T09:45:00,mfh,87.31
2023-02-21T09:46:00,mfh,87.76
2023-02-21T09:47:00,mfh,87.50
2023-02-21T09:48:00,mfh,87.54
2023-02-21T09:49:00,mfh,87.54
2023-02-21T09:50:00,mfh,87.70
2023-02-21T09:51:00,mfh,87.59
2023-02-21T09:52:00,mfh,87.79
2023-02-21T09:53:00,mfh,87.34
2023-02-21T09:54:00,mfh,87.27
2023-02-21T09:55:00,mfh,87.20
2023-02-21T09:56:00,mfh,87.30
2023-02-21T09:57:00,mfh,87.42
2023-02-21T09:58:00,mfh,87.13
2023-02-21T09:59:00,mfh,87.26
2023-02-21T10:00:00,mfh,87.03
2023-02-21T10:01:00,mfh,87.05
2023-02-21T10:02:00,mfh,87.09
2023-02-21T10:03:00,mfh,87.13
2023-02-21T10:04:00,mfh,87.04
2023-02-21T10:05:00,mfh,87.09
2023-02-21T10:06:00,mfh,87.25
2023-02-21T10:07:00,mfh,86.86
2023-02-21T10:08:00,mfh,86.86
2023-02-21T10:09:00,mfh,86.74
2023-02-21T10:10:00,mfh,86.84
2023-02-21T10:11:00,mfh,86.88
2023-02-21T10:12:00,mfh,86.77
2023-02-21T10:13:00,mfh,84.21
2023-02-21T10:14:00,mfh,84.25
2023-02-21T10:15:00,mfh,84.11
2023-02-21T10:16:00,mfh,84.11
2023-02-21T10:17:00,mfh,84.02
2023-02-21T10:18:00,mfh,83.57
2023-02-21T10:19:00,mfh,83.87
2023-02-21T10:20:00,mfh,83.77
2023-02-21T10:21:00,mfh,83.98
2023-02-21T10:22:00,mfh,84.26
2023-02-21T10:23:00,mfh,87.00
2023-02-21T10:24:00,mfh,86.34
2023-02-21T10:25:00,mfh,86.22
2023-02-21T10:26:00,mfh,86.25
2023-02-21T10:27:00,mfh,86.21
2023-02-21T10:28:00,mfh,86.12
2023-02-21T10:29:00,mfh,86.20
2023-02-21T10:30:00,mfh,84.34
2023-02-21T10:31:00,mfh,84.11
2023-02-21T10:32:00,mfh,84.02
2023-02-21T10:33:00,mfh,75.13
2023-02-21T10:34:00,mfh,76.37
2023-02-21T10:35:00,mfh,76.42
2023-02-21T10:36:00,mfh,76.94
2023-02-21T10:37:00,mfh,76.71
2023-02-21T10:38:00,mfh,76.76
2023-02-21T10:39:00,mfh,76.62
2023-02-21T10:40:00,mfh,76.73
2023-02-21T10:41:00,mfh,76.77
2023-02-21T10:42:00,mfh,76.99
2023-02-21T10:43:00,mfh,76.52
2023-02-21T10:44:00,mfh,76.54
2023-02-21T10:45:00,mfh,77.21
2023-02-21T10:46:00,mfh,77.45
2023-02-21T10:47:00,mfh,77.12
2023-02-21T10:48:00,mfh,77.09
2023-02-21T10:49:00,mfh,77.13
2023-02-21T10:50:00,mfh,76.96
2023-02-21T10:51:00,mfh,77.36
2023-02-21T10:52:00,mfh,77.37
2023-02-21T10:53:00,mfh,77.30
2023-02-21T10:54:00,mfh,77.42
2023-02-21T10:55:00,mfh,77.69
2023-02-21T10:56:00,mfh,77.45
2023-02-21T10:57:00,mfh,77.14
2023-02-21T10:58:00,mfh,77.63
2023-02-21T10:59:00,mfh,77.93
2023-02-21T11:00:00,mfh,77.68
2023-02-21T11:01:00,mfh,78.32
2023-02-21T11:02:00,mfh,77.38
2023-02-21T11:03:00,mfh,77.55
2023-02-21T11:04:00,mfh,77.34
2023-02-21T11:05:00,mfh,77.39
2023-02-21T11:06:00,mfh,77.42
2023-02-21T11:07:00,mfh,76.78
2023-02-21T11:08:00,mfh,77.00
2023-02-21T11:09:00,mfh,77.63
2023-02-21T11:10:00,mfh,78.06
2023-02-21T11:11:00,mfh,78.03
2023-02-21T11:12:00,mfh,78.22
2023-02-21T11:13:00,mfh,78.25
2023-02-21T11:14:00,mfh,78.63
2023-02-21T11:15:00,mfh,78.86
2023-02-21T11:16:00,mfh,77.91
2023-02-21T11:17:00,mfh,78.02
2023-02-21T11:18:00,mfh,78.19
2023-02-21T11:19:00,mfh,77.88
2023-02-21T11:20:00,mfh,79.18
2023-02-21T11:21:00,mfh,77.78
2023-02-21T11:22:00,mfh,77.85
2023-02-21T11:23:00,mfh,79.28
2023-02-21T11:24:00,mfh,82.13
2023-02-21T11:25:00,mfh,81.10
2023-02-21T11:26:00,mfh,81.61
2023-02-21T11:27:00,mfh,81.94
2023-02-21T11:28:00,mfh,81.27
2023-02-21T11:29:00,mfh,81.47
2023-02-21T11:30:00,mfh,85.88
2023-02-21T11:31:00,mfh,85.91
2023-02-21T11:32:00,mfh,85.80
2023-02-21T11:33:00,mfh,85.77
2023-02-21T11:34:00,mfh,85.67
2023-02-21T11:35:00,mfh,85.41
2023-02-21T11:36:00,mfh,85.44
2023-02-21T11:37:00,mfh,85.64
2023-02-21T11:38:00,mfh,86.99
2023-02-21T11:39:00,mfh,87.28
2023-02-21T11:40:00,mfh,87.28
2023-02-21T11:41:00,mfh,87.54
2023-02-21T11:42:00,mfh,87.20
2023-02-21T11:43:00,mfh,87.08
2023-02-21T11:44:00,mfh,87.40
2023-02-21T11:45:00,mfh,87.41
2023-02-21T11:46:00,mfh,89.02
2023-02-21T11:47:00,mfh,89.02
2023-02-21T11:48:00,mfh,89.26
2023-02-21T11:49:00,mfh,89.15
2023-02-21T11:50:00,mfh,88.99
2023-02-21T11:51:00,mfh,88.86
2023-02-21T11:52:00,mfh,88.73
2023-02-21T11:53:00,mfh,88.69
2023-02-21T11:54:00,mfh,88.62
2023-02-21T11:55:00,mfh,88.69
2023-02-21T11:56:00,mfh,88.41
2023-02-21T11:57:00,mfh,88.49
2023-02-21T11:58:00,mfh,88.54
2023-02-21T11:59:00,mfh,89.98
2023-02-21T12:00:00,mfh,89.86
2023-02-21T12:01:00,mfh,89.77
2023-02-21T12:02:00,mfh,89.86
2023-02-21T12:03:00,mfh,90.12
2023-02-21T12:04:00,mfh,89.85
2023-02-21T12:05:00,mfh,87.83
2023-02-21T12:06:00,mfh,87.91
2023-02-21T12:07:00,mfh,88.04
2023-02-21T12:08:00,mfh,87.90
2023-02-21T12:09:00,mfh,86.51
2023-02-21T12:10:00,mfh,86.66
2023-02-21T12:11:00,mfh,86.85
2023-02-21T12:12:00,mfh,86.53
2023-02-21T12:13:00,mfh,86.53
2023-02-21T12:14:00,mfh,86.48
2023-02-21T12:15:00,mfh,86.47
2023-02-21T12:16:00,mfh,86.45
2023-02-21T12:17:00,mfh,86.49
2023-02-21T12:18:00,mfh,86.85
2023-02-21T12:19:00,mfh,86.42
2023-02-21T12:20:00,mfh,86.60
2023-02-21T12:21:00,mfh,86.35
2023-02-21T12:22:00,mfh,86.34
2023-02-21T12:23:00,mfh,87.84
2023-02-21T12:24:00,mfh,88.07
2023-02-21T12:25:00,mfh,87.92
2023-02-21T12:26:00,mfh,87.95
2023-02-21T12:27:00,mfh,87.84
2023-02-21T12:28:00,mfh,88.30
2023-02-21T12:29:00,mfh,87.78
2023-02-21T12:30:00,mfh,87.73
2023-02-21T12:31:00,mfh,87.74
2023-02-21T12:32:00,mfh,89.96
2023-02-21T12:33:00,mfh,89.67
2023-02-21T12:34:00,mfh,89.69
2023-02-21T12:35:00,mfh,89.61
2023-02-21T12:36:00,mfh,89.77
2023-02-21T12:37:00,mfh,89.68
2023-02-21T12:38:00,mfh,89.59
2023-02-21T12:39:00,mfh,89.50
2023-02-21T12:40:00,mfh,89.46
2023-02-21T12:41:00,mfh,89.40
2023-02-21T12:42:00,mfh,89.70
2023-02-21T12:43:00,mfh,89.52
2023-02-21T12:44:00,mfh,89.41
2023-02-21T12:45:00,mfh,89.29
2023-02-21T12:46:00,mfh,89.28
2023-02-21T12:47:00,mfh,89.43
2023-02-21T12:48:00,mfh,89.38
2023-02-21T12:49:00,mfh,89.21
2023-02-21T12:50:00,mfh,89.23
2023-02-21T12:51:00,mfh,89.30
2023-02-21T12:52:00,mfh,89.12
2023-02-21T12:53:00,mfh,89.06
2023-02-21T12:54:00,mfh,89.24
2023-02-21T12:55:00,mfh,89.25
2023-02-21T12:56:00,mfh,89.21
2023-02-21T12:57:00,mfh,89.11
2023-02-21T12:58:00,mfh,89.16
2023-02-21T12:59:00,mfh,88.96
2023-02-21T13:00:00,mfh,88.97
2023-02-21T13:01:00,mfh,88.97
2023-02-21T13:02:00,mfh,89.15
2023-02-21T13:03:00,mfh,89.13
2023-02-21T13:04:00,mfh,89.44
2023-02-21T13:05:00,mfh,89.50
2023-02-21T13:06:00,mfh,89.25
2023-02-21T13:07:00,mfh,89.39
2023-02-21T13:08:00,mfh,89.20
2023-02-21T13:09:00,mfh,89.34
2023-02-21T13:10:00,mfh,89.06
2023-02-21T13:11:00,mfh,89.17
2023-02-21T13:12:00,mfh,88.98
2023-02-21T13:13:00,mfh,89.18
2023-02-21T13:14:00,mfh,89.23
2023-02-21T13:15:00,mfh,89.06
2023-02-21T13:16:00,mfh,89.04
2023-02-21T13:17:00,mfh,89.04
2023-02-21T13:18:00,mfh,89.17